Terminal Aerodrome Forecast
Issued by NWS

Home | Current Version | Previous Version | Text Only | Print | Product List | Glossary On
Versions: 1 2 3 4 5 6 7 8 9 10 11 12 13 14 15 16 17 18 19 20 21 22 23 24 25 26 27 28 29 30 31 32 33 34 35 36
000
FTUS44 KFWD 191700
TAFDAL
TAF
KDAL 191724Z 1918/2018 01007KT 5SM BR BKN007 OVC010
      TEMPO 1918/1919 3SM BR BKN005
     FM192000 02006KT P6SM OVC012
     FM200000 03005KT P6SM OVC020
     FM200600 03003KT 5SM BR OVC015=

USA.gov is the U.S. government's official web portal to all federal, state and local government web resources and services.